Flag for U.S.A. Weather past 2 weeks in Brockton, Massachusetts, U.S.A.

Now
82 °F

Warm.


Feels Like: 82 °F
Forecast: 58 / 83 °F
Wind: 16 mph from South

Location: East Milton

Current Time: May 30, 2015 at 4:44:44 PM

Latest Report: May 30, 2015 at 3:54 PM


Visibility: N/A

Pressure: 30.09 "Hg

Humidity: 48%

Dew point: 60 °F

Location of BrocktonLocation

Historic Weather in Brockton — Graph

°F

Brockton temperature yesterday

Maximum temperature yesterday: 76 °F (at 3:54 PM)
Minimum temperature yesterday: 59 °F (at 3:54 AM)
Average temperature yesterday: 67 °F

Past Weeks' High & Low Weather Summary

 TemperatureHumidityPressure
High85 °F (May 30, 2:54 PM)100% (May 17, 3:54 AM)30.33 "Hg (May 17, 3:54 AM)
Low40 °F (May 23, 5:54 AM)20% (May 15, 2:54 PM)29.73 "Hg (May 20, 1:54 AM)
Average62 °F65%30.12 "Hg
* Reported May 15 2:54 PM — May 30 2:54 PM, Brockton, Weather by CustomWeather, © 2015

Note: Actual official high and low records may vary slightly from our data, if they occured in-between our weather recording intervals... More about our weather records

Advertising

Brockton weather history for previous 24 hours

 ConditionsComfort  
Time TempWeatherWind HumidityBarometerVisibility
2:54 PM
Sat, May 30
85 °FWarm.17 mph43%30.11 "HgN/A
1:54 PM83 °FWarm.22 mph44%30.14 "HgN/A
12:54 PM82 °FWarm.18 mph49%30.16 "HgN/A
11:54 AM80 °FWarm.15 mph56%30.18 "HgN/A
10:54 AM78 °FWarm.15 mph62%30.20 "HgN/A
9:54 AM74 °FMild.10 mph67%30.21 "HgN/A
8:54 AM68 °FMild.9 mph76%30.22 "HgN/A
7:54 AM60 °FCool.13 mph96%30.23 "HgN/A
6:54 AM57 °FCool.10 mph100%30.24 "HgN/A
5:54 AM55 °FCool.9 mph100%30.23 "HgN/A
4:54 AM57 °FCool.12 mph96%30.21 "HgN/A
3:54 AM59 °FCool.13 mph90%30.21 "HgN/A
2:54 AM60 °FCool.12 mph86%30.22 "HgN/A
1:54 AM61 °FCool.12 mph83%30.23 "HgN/A
12:54 AM62 °FCool.13 mph80%30.24 "HgN/A
11:54 PM
Fri, May 29
62 °FCool.12 mph78%30.26 "HgN/A
10:54 PM63 °FMild.12 mph81%30.27 "HgN/A
9:54 PM65 °FMild.12 mph78%30.27 "HgN/A
8:54 PM65 °FMild.8 mph81%30.27 "HgN/A
7:54 PM66 °FMild.8 mph78%30.27 "HgN/A
6:54 PM68 °FMild.9 mph70%30.27 "HgN/A
5:54 PM71 °FMild.9 mph66%30.26 "HgN/A
4:54 PM75 °FMild.9 mph55%30.28 "HgN/A
Weather by CustomWeather, © 2015

See weather overviewHow to use our weather pages